Lid_Strength_Index
13 12 12 12 13 12 14 14 14 13 14 13 12 11 9 8 7 7 7 6 6 6 6 6 6 5 6 7 7 7 8 9 9 9 9 9 8 9 9 9 10 9 9 10
15 11 11 14 13 12 12 13 13 12 13 11 10 10 10 8 7 7 7 6 6 6 6 6 6 5 6 7 7 7 8 9 9 8 8 8 8 8 9 9 9 9 10 10
17 13 13 17 14 13 12 12 12 14 13 12 12 11 11 10 9 7 6 6 6 5 6 5 5 5 7 7 7 7 8 8 9 8 8 8 8 8 9 9 10 10 10 10
16 14 21 14 11 11 13 12 12 12 12 12 12 11 10 9 10 10 10 6 5 5 5 5 5 5 6 7 7 7 8 8 8 8 8 8 8 8 9 9 9 9 10 10
17 18 15 14 13 13 13 14 11 12 11 11 10 10 10 9 9 9 8 9 8 5 5 5 5 5 6 7 7 7 8 8 8 8 8 8 8 8 8 9 10 10 9 10
17 19 20 16 13 11 11 15 11 11 11 11 11 14 12 10 9 9 8 8 7 5 6 5 5 6 7 7 7 8 8 8 8 7 8 8 8 8 8 8 9 9 10 10
16 17 16 14 12 11 16 15 11 10 10 11 12 11 10 9 9 8 7 7 7 5 5 4 4 5 6 7 7 7 7 7 8 7 7 7 7 8 8 8 9 9 10 10
16 19 21 12 12 15 13 11 10 10 9 10 10 9 9 8 8 8 8 8 7 5 5 4 4 5 6 7 6 7 7 8 8 8 7 7 8 8 8 8 9 10 10 11
16 16 12 11 11 10 10 10 10 9 9 9 10 10 9 9 9 8 8 7 6 5 5 5 5 4 5 6 6 7 8 8 8 8 8 7 8 8 8 8 9 9 9 10
15 12 11 11 10 10 9 10 9 8 9 10 11 11 10 10 9 8 8 7 7 6 6 6 5 4 5 6 6 7 8 9 8 8 8 8 7 8 8 8 9 9 9 10
14 12 11 10 10 10 10 9 9 8 10 10 10 11 11 10 10 9 8 6 6 6 6 6 5 5 6 6 6 7 8 9 9 8 8 8 8 8 8 7 7 8 8 9
14 11 12 11 9 9 10 9 8 9 10 10 10 11 11 11 10 10 9 7 6 6 6 6 5 6 6 6 6 8 9 9 9 9 8 8 8 10 11 9 10 9 9 8
10 8 9 9 9 8 9 8 8 8 10 11 10 10 11 11 11 11 10 8 7 6 5 5 5 6 6 6 6 7 8 8 9 9 9 9 9 9 11 13 11 10 10 9
8 8 10 9 9 8 8 8 8 8 8 9 10 10 11 11 11 11 11 10 8 8 6 5 6 7 6 6 6 7 7 11 8 8 8 8 9 9 9 10 10 11 11 9
8 7 8 8 8 8 8 8 9 9 9 9 9 10 11 11 11 11 10 11 10 10 9 8 7 7 5 6 7 7 7 8 8 8 8 8 8 9 9 10 10 11 12 12
7 7 8 9 9 9 9 9 9 9 9 9 9 10 9 10 10 10 10 11 12 12 11 11 9 8 7 5 6 7 8 11 9 8 9 10 9 9 10 10 11 11 10 10
8 9 9 10 10 10 10 9 9 10 9 9 9 9 9 9 9 10 9 10 11 12 11 11 11 8 8 7 7 7 8 10 10 9 9 9 9 10 10 10 10 11 10 11
6 6 7 8 9 9 9 9 9 9 10 10 8 8 9 10 11 10 10 10 10 11 11 11 11 10 10 10 8 8 8 9 9 9 10 10 9 9 10 10 10 10 11 12
5 6 6 7 7 9 9 9 9 8 8 9 9 10 9 9 9 10 10 11 11 12 11 10 12 11 11 12 10 9 9 10 10 10 10 12 12 11 10 10 10 10 11 11
6 5 5 6 7 7 8 8 8 8 8 9 9 10 10 10 11 11 9 11 12 12 10 10 10 10 10 11 12 11 10 10 10 11 10 10 10 11 10 11 10 11 11 11
6 6 6 6 7 8 9 9 10 9 9 9 10 11 11 10 10 11 11 12 12 12 11 11 12 12 11 11 11 11 12 11 11 11 11 12 12 11 11 10 11 11 11 11
6 6 6 6 6 7 7 8 8 9 9 10 11 11 11 10 10 10 10 12 12 12 12 12 12 13 12 12 11 11 12 12 12 12 12 11 11 12 12 12 11 11 11 11
6 6 6 6 6 6 6 7 10 10 11 11 11 11 11 11 11 12 13 11 11 12 12 12 13 13 14 12 12 13 13 12 12 12 12 12 12 12 12 12 12 11 11 11
6 6 6 5 5 5 6 6 7 8 10 10 10 11 11 12 12 11 11 12 13 13 12 12 13 14 14 13 13 12 12 12 12 12 13 12 12 12 12 12 12 12 11 11
6 5 5 5 6 7 6 6 7 8 8 9 10 11 11 11 12 12 12 12 13 13 12 13 14 15 13 13 13 13 12 12 12 13 13 13 12 12 12 12 12 11 11 12
6 6 7 6 7 7 7 7 8 8 9 10 10 10 11 11 11 12 12 13 12 13 12 13 13 13 13 13 12 12 12 12 12 13 14 13 12 12 12 12 12 12 11 11
7 8 8 8 8 8 8 8 9 10 9 9 9 10 10 10 11 12 13 12 12 13 13 14 13 14 13 13 13 12 12 12 12 12 12 11 12 11 11 11 11 11 11 11